Regional Weather Roundup
Issued by NWS

Home | Current Version | Previous Version | Text Only | Print | Product List | Glossary On
Versions: 1 2 3 4 5 6 7 8 9 10 11 12 13 14 15 16 17 18 19 20 21 22 23 24 25 26 27
000
ASUS43 KDMX 230707
RWRIA

WEATHER ROUNDUP FOR IOWA
NATIONAL WEATHER SERVICE DES MOINES IA
200 AM CDT WED APR 23 2014

NOTE: "FAIR" INDICATES FEW OR NO CLOUDS BELOW 12,000 FEET WITH NO
SIGNIFICANT WEATHER AND/OR OBSTRUCTIONS TO VISIBILITY.

* - THESE STATIONS ARE NOT NWS STATIONS...THUS NOT UNDER NWS
QUALITY CONTROL.  THEY ALSO DO NOT REPORT WEATHER SUCH
AS PRECIPITATION OR FOG.

IAZ001>003-012>014-020>022-031>034-043>046-230800-
   NORTHWEST IOWA

CITY           SKY/WX    TMP DP  RH WIND       PRES   REMARKS
CARROLL *      CLOUDY    52  34  50 SE12      30.01S
CHEROKEE *     CLOUDY    54  36  50 SE9G16    29.99S
DENISON *      CLOUDY    54  34  47 SE13G20   29.98S
LE MARS *      MOCLDY    55  36  47 SE14G20   29.95F
ORANGE CITY *  CLOUDY    55  34  44 SE10G17   29.96F
SHELDON *      CLEAR     52  36  54 SE12      29.97S
SIOUX CITY     PTCLDY    55  34  45 SE12      29.95S
SPENCER        CLOUDY    52  35  52 SE12      30.00F
STORM LAKE *   MOCLDY    50  36  57 SE13      30.01S
$$

IAZ055>058-069>071-079>083-090>094-230800-
   SOUTHWEST IOWA

CITY           SKY/WX    TMP DP  RH WIND       PRES   REMARKS
ATLANTIC *     CLOUDY    55  34  44 E14       30.00S
AUDUBON *      PTCLDY    52  30  43 SE8       30.02S
CLARINDA *     MOCLDY    55  36  47 SE6       30.01S
COUNCIL BLFS * CLOUDY    52  36  54 SE9       29.98R
CRESTON *      MOCLDY    52  34  50 E12       30.01F
HARLAN  *      MOCLDY    54  34  47 SE13      30.03R
LAMONI         CLOUDY    53  34  48 E8        30.02F
RED OAK *      CLEAR     52  36  54 SE8       29.99S
SHENANDOAH *   MOCLDY    55  36  47 SE8       30.00S
$$

IAZ047>049-059>061-072>074-084-230800-
   CENTRAL IOWA

CITY           SKY/WX    TMP DP  RH WIND       PRES   REMARKS
AMES           CLOUDY    51  34  52 SE7       30.05F
ANKENY *       CLOUDY    52  36  54 E6        30.05F
CHARITON *     CLOUDY    50  36  57 E9        30.04F
DES MOINES     CLOUDY    54  32  43 E7        30.05S
GRINNELL*      CLOUDY    48  34  57 E5        30.06F
KNOXVILLE *    CLOUDY    50  36  57 E5        30.05S
MARSHALLTOWN   CLOUDY    47  35  63 E6        30.06R
NEWTON *       PTCLDY    50  34  53 E7        30.06S
PELLA *        CLOUDY    52  34  50 SE7       30.06F
PERRY *          N/A     52  32  46 SE10      30.03F
$$

IAZ004>006-015-016-023>025-035-036-230800-
   NORTH CENTRAL IOWA

CITY           SKY/WX    TMP DP  RH WIND       PRES   REMARKS
ALGONA *       CLOUDY    50  36  57 SE9       30.05S
CLARION *      CLOUDY    50  34  53 E12       30.05S
ESTHERVILLE    CLOUDY    48  38  68 SE14      30.01F
FORT DODGE *   CLOUDY    50  36  57 SE12      30.04F
MASON CITY     CLOUDY    47  31  53 E12       30.07S
FOREST CITY *  CLOUDY    46  32  57 SE7       30.05S
IOWA FALLS *   MOCLDY    48  36  61 E6        30.06F
$$

IAZ007>011-017>019-026>030-037>042-050>054-066-230800-
   NORTHEAST IOWA

CITY           SKY/WX    TMP DP  RH WIND       PRES   REMARKS
CEDAR RAPIDS   MOCLDY    45  30  55 NE9       30.06S
CHARLES CITY * CLOUDY    45  30  57 E9        30.07S
CLINTON *      CLEAR     39  30  70 SE10      30.13R WCI  32
DECORAH *      CLEAR     41  28  60 E10       30.08F
DUBUQUE        CLEAR     39  27  62 NE7       30.09S WCI  34
MONTICELLO *   CLEAR     39  30  70 NE7       30.08F WCI  34
OELWEIN *      CLOUDY   N/A N/A N/A E9        30.08S
WATERLOO       CLOUDY    45  33  63 E6        30.07S
$$

IAZ064-065-067-068-078-230800-
   EAST CENTRAL IOWA

CITY           SKY/WX    TMP DP  RH WIND       PRES   REMARKS
DAVENPORT      CLEAR     41  32  70 E13       30.10R
IOWA CITY      MOCLDY    46  31  55 NE7       30.08S
MT. PLEASANT * MOCLDY    43  28  56 NE6       30.07R
MUSCATINE *    CLEAR     43  30  61 CALM      30.07R
QUAD CITIES    CLEAR     41  32  70 E10       30.09R
$$

IAZ062-063-075>077-085>089-095>099-230800-
   SOUTHEAST IOWA

CITY           SKY/WX    TMP DP  RH WIND       PRES   REMARKS
BURLINGTON     MOCLDY    48  31  51 NE6       30.05S
FAIRFIELD *    MOCLDY    46  32  57 NE6       30.07R
FORT MADISON * CLEAR     48  30  49 CALM      30.07R
KEOKUK *       CLEAR     50  32  50 NE5       30.05S
OSKALOOSA *    MOCLDY    48  37  66 NE6       30.07R
CENTERVILLE *  CLEAR     46  32  57 E7        30.07S
OTTUMWA        MOCLDY    49  34  56 NE8       30.06R
WASHINGTON *   CLEAR     43  30  61 NE7       30.06F
$$

ABBREVIATIONS USED IN REMARKS
   TC - TEMPERATURES IN CELSIUS
  WCI - WIND CHILL INDEX
   HX - HEAT INDEX
  VSB - VISIBILITY
$$




USA.gov is the U.S. government's official web portal to all federal, state and local government web resources and services.